Location: Copeville
(33.0796°N, 96.4155°W)
Time: 07:43:11
(UTC+00:00)

Cosmos 1328 Rocket - Pass Details

Date: 10 July 2022
Orbit: 600 x 627 km, 82.5° (Epoch: 14 August)

Event Time Altitude Azimuth Distance (km) Brightness Sun altitude
Rises 08:36:23 0° 342° (NNW) 2,886 7.5 -27.1°
Reaches altitude 10° 08:38:47 10° 332° (NNW) 1,972 6.4 -26.9°
Enters shadow 08:40:33 21° 316° (NW) 1,394 5.4 -26.7°
